Total_Precipitation_Accumulation
0.00 0.01 0.04 0.02 0.01 0.01 0.03 0.05 0.06 0.06 0.07 0.07 0.05 0.04 0.02 0.01 0.01 0.01 0.01 0.01 0.01 0.02 0.03 0.04 0.05 0.06 0.07 0.08 0.08 0.07 0.06 0.05 0.06 0.08 0.09 0.10 0.15 0.22 0.32 0.36 0.43 0.37 0.23
0.00 0.01 0.03 0.02 0.01 0.01 0.02 0.04 0.06 0.07 0.08 0.07 0.06 0.04 0.02 0.02 0.01 0.01 0.01 0.01 0.02 0.02 0.02 0.04 0.04 0.04 0.05 0.04 0.03 0.03 0.04 0.05 0.08 0.11 0.12 0.12 0.17 0.28 0.32 0.28 0.42 0.31 0.18
0.00 0.00 0.02 0.01 0.01 0.01 0.02 0.03 0.04 0.06 0.07 0.07 0.06 0.05 0.03 0.02 0.01 0.01 0.01 0.01 0.02 0.02 0.03 0.03 0.03 0.02 0.03 0.02 0.01 0.02 0.03 0.07 0.13 0.21 0.31 0.29 0.14 0.26 0.36 0.32 0.28 0.15 0.13
0.00 0.00 0.01 0.01 0.01 0.01 0.01 0.02 0.04 0.05 0.06 0.06 0.06 0.05 0.04 0.03 0.03 0.04 0.02 0.02 0.02 0.03 0.04 0.03 0.02 0.02 0.02 0.02 0.01 0.02 0.03 0.07 0.14 0.27 0.59 0.42 0.14 0.14 0.20 0.20 0.18 0.13 0.12
0.00 0.00 0.01 0.01 0.01 0.01 0.01 0.02 0.03 0.04 0.06 0.06 0.05 0.05 0.04 0.04 0.04 0.04 0.03 0.02 0.03 0.04 0.04 0.03 0.02 0.03 0.02 0.02 0.03 0.03 0.04 0.07 0.15 0.31 0.40 0.39 0.34 0.16 0.13 0.14 0.14 0.14 0.13
0.01 0.01 0.01 0.02 0.01 0.01 0.01 0.02 0.03 0.04 0.05 0.06 0.06 0.05 0.05 0.05 0.04 0.04 0.04 0.03 0.04 0.05 0.06 0.04 0.02 0.02 0.02 0.02 0.03 0.03 0.04 0.09 0.18 0.27 0.23 0.27 0.34 0.24 0.16 0.21 0.26 0.24 0.15
0.01 0.01 0.02 0.02 0.02 0.01 0.01 0.01 0.02 0.03 0.04 0.05 0.05 0.04 0.04 0.04 0.04 0.04 0.04 0.04 0.06 0.08 0.09 0.05 0.03 0.03 0.02 0.02 0.02 0.02 0.03 0.10 0.21 0.25 0.21 0.29 0.30 0.20 0.25 0.40 0.51 0.45 0.33
0.02 0.03 0.03 0.03 0.03 0.02 0.02 0.02 0.02 0.03 0.04 0.04 0.05 0.05 0.04 0.04 0.05 0.05 0.06 0.06 0.07 0.08 0.08 0.06 0.04 0.04 0.03 0.03 0.03 0.03 0.04 0.09 0.15 0.18 0.18 0.26 0.19 0.17 0.35 0.56 0.66 0.66 0.60
0.07 0.12 0.07 0.05 0.04 0.04 0.04 0.04 0.03 0.04 0.05 0.05 0.05 0.05 0.05 0.05 0.06 0.08 0.10 0.11 0.11 0.10 0.10 0.07 0.04 0.04 0.04 0.04 0.04 0.04 0.06 0.10 0.17 0.21 0.21 0.25 0.18 0.24 0.50 0.69 0.76 0.80 0.81
0.20 0.18 0.09 0.07 0.07 0.07 0.06 0.05 0.05 0.06 0.07 0.07 0.07 0.07 0.07 0.07 0.10 0.14 0.14 0.16 0.19 0.19 0.18 0.14 0.10 0.07 0.07 0.06 0.04 0.04 0.06 0.09 0.11 0.17 0.26 0.28 0.25 0.37 0.58 0.71 0.88 0.95 0.92
0.29 0.22 0.08 0.06 0.07 0.09 0.09 0.09 0.09 0.11 0.12 0.11 0.13 0.14 0.15 0.16 0.23 0.34 0.35 0.38 0.36 0.36 0.34 0.30 0.27 0.24 0.21 0.13 0.13 0.17 0.14 0.08 0.10 0.20 0.25 0.25 0.31 0.51 0.71 0.86 0.96 1.00 0.98
0.17 0.15 0.13 0.10 0.10 0.10 0.12 0.18 0.22 0.23 0.29 0.24 0.29 0.35 0.36 0.44 0.41 0.36 0.54 0.69 0.72 0.76 0.72 0.70 0.69 0.54 0.38 0.32 0.71 0.91 0.31 0.20 0.22 0.23 0.29 0.39 0.57 0.79 1.02 1.03 0.96 0.94 0.90
0.31 0.26 0.21 0.18 0.19 0.18 0.22 0.24 0.31 0.37 0.51 0.41 0.41 0.52 0.68 0.70 0.55 0.48 0.56 0.78 0.94 1.00 0.90 1.14 1.23 0.87 0.79 0.93 1.21 1.18 0.63 0.52 0.37 0.31 0.37 0.59 0.84 1.13 1.38 1.32 1.11 0.97 0.90
0.48 0.40 0.35 0.30 0.28 0.31 0.35 0.36 0.44 0.47 0.62 0.60 0.69 0.77 0.89 0.98 0.87 0.82 0.89 0.90 1.00 1.12 1.34 1.47 1.55 1.41 1.34 1.26 1.37 1.19 0.98 0.92 0.63 0.73 0.88 1.07 1.12 1.22 1.57 1.61 1.37 1.19 1.05
0.61 0.49 0.49 0.52 0.56 0.60 0.67 0.72 0.74 0.76 0.84 0.88 0.98 0.97 1.00 1.15 1.11 1.17 1.15 1.21 1.17 1.27 1.50 1.72 1.70 1.75 1.79 1.66 1.43 1.31 1.30 1.24 1.12 1.25 1.27 1.47 1.36 1.30 1.59 1.65 1.47 1.31 1.20
0.90 0.88 0.87 0.92 1.10 1.09 1.09 1.05 1.06 1.04 1.05 1.05 1.13 1.14 1.23 1.38 1.48 1.41 1.26 1.31 1.28 1.37 1.47 1.66 1.76 2.02 1.96 1.89 1.49 1.35 1.39 1.44 1.37 1.47 1.50 1.69 1.55 1.35 1.45 1.50 1.49 1.42 1.31
1.08 1.25 1.37 1.54 1.65 1.62 1.57 1.44 1.38 1.37 1.33 1.35 1.39 1.44 1.57 1.64 1.71 1.66 1.47 1.38 1.45 1.53 1.60 1.65 1.75 2.00 1.93 1.81 1.52 1.44 1.43 1.34 1.19 1.23 1.34 1.46 1.41 1.30 1.31 1.35 1.40 1.37 1.33
1.13 1.37 1.72 2.04 2.11 2.02 1.92 1.78 1.65 1.56 1.54 1.53 1.57 1.59 1.64 1.72 1.77 1.74 1.53 1.39 1.61 1.63 1.66 1.76 1.82 1.93 1.99 2.00 1.73 1.51 1.43 1.32 1.13 1.14 1.15 1.17 1.20 0.99 1.11 1.28 1.37 1.36 1.47
1.35 1.78 2.33 2.50 2.55 2.46 2.20 2.00 1.88 1.83 1.72 1.64 1.65 1.58 1.61 1.70 1.69 1.73 1.47 1.36 1.62 1.76 1.74 1.64 1.84 2.04 2.01 2.03 1.78 1.54 1.33 1.16 0.99 0.97 1.01 0.94 0.94 0.91 0.92 0.99 1.09 1.16 1.46
1.77 2.23 2.56 2.76 2.94 2.90 2.81 2.58 2.26 2.05 1.84 1.73 1.65 1.53 1.44 1.40 1.51 1.71 1.44 1.44 1.68 1.73 1.69 1.78 1.91 2.08 1.96 2.01 1.84 1.39 1.14 0.89 0.85 0.76 0.69 0.71 0.65 0.60 0.63 0.81 1.06 0.99 1.25
1.95 2.23 2.64 2.89 2.96 2.93 2.92 2.66 2.27 1.90 1.70 1.56 1.44 1.35 1.35 1.40 1.55 1.82 1.59 1.60 1.66 1.58 1.58 1.78 1.91 1.84 1.71 2.13 2.06 1.35 0.86 0.69 0.60 0.45 0.47 0.47 0.42 0.44 0.56 0.78 0.96 1.02 0.99
1.61 1.96 2.24 2.30 2.11 1.97 1.95 1.94 1.81 1.73 1.57 1.42 1.38 1.43 1.41 1.46 1.54 1.65 1.67 1.60 1.61 1.58 1.44 1.53 1.78 1.66 1.38 1.84 2.00 1.77 1.14 0.71 0.50 0.35 0.36 0.36 0.39 0.51 0.57 0.61 0.80 0.98 0.98
1.28 1.44 1.59 1.48 1.36 1.32 1.40 1.51 1.56 1.66 1.57 1.57 1.63 1.68 1.54 1.56 1.57 1.66 1.57 1.43 1.40 1.42 1.29 1.30 1.50 1.57 1.36 1.43 1.79 2.04 1.54 0.92 0.67 0.45 0.46 0.49 0.60 0.71 0.70 0.74 0.82 0.92 0.99
1.01 1.11 1.28 1.25 1.19 1.26 1.48 1.59 1.63 1.76 1.88 2.03 2.22 2.16 2.01 1.84 1.72 1.63 1.47 1.31 1.16 1.14 1.10 1.07 1.24 1.36 1.37 1.17 1.32 1.46 1.41 1.31 1.17 0.75 0.55 0.59 0.74 0.81 0.83 0.87 0.88 0.94 1.02
0.85 0.91 1.12 1.25 1.37 1.56 1.74 1.84 1.93 2.00 2.07 2.07 2.09 2.02 1.92 1.81 1.68 1.52 1.40 1.28 1.17 1.08 1.01 0.99 1.04 1.08 1.12 1.04 1.09 1.16 1.23 1.24 1.18 1.07 0.79 0.77 0.78 0.65 0.66 0.72 0.85 1.08 1.16
1.09 1.03 1.09 1.27 1.48 1.63 1.71 1.78 1.80 1.77 1.73 1.63 1.53 1.42 1.34 1.30 1.25 1.20 1.12 1.03 0.99 0.98 0.99 0.97 0.95 0.96 0.98 1.00 1.01 1.04 1.15 1.23 1.27 1.28 1.10 0.96 0.87 0.73 0.70 0.72 0.79 0.95 1.05